Regional Weather Roundup
Issued by NWS

Home | Current Version | Previous Version | Graphics & Text | Print | Product List | Glossary On
Versions: 1 2 3 4 5 6 7 8 9 10 11 12 13 14 15 16 17 18 19 20 21 22 23 24 25 26 27 28 29 30 31 32 33 34 35 36 37 38 39 40 41 42 43 44 45 46 47 48 49 50
000
ASUS44 KMEG 282110
RWRTN
TENNESSEE HOURLY STATE WEATHER ROUNDUP
NATIONAL WEATHER SERVICE MEMPHIS TN
400 PM CDT FRI AUG 28 2015

TNZ002-004-019-021-049-052-054-088>092-282200-
WEST TENNESSEE

CITY           SKY/WX    TMP DP  RH WIND       PRES   REMARKS
MEMPHIS INTL   MOSUNNY   90  62  39 VRB7      30.01F HX  90
NWS MEMPHIS      N/A     86 N/A N/A MISG        N/A
JACKSON        SUNNY     87  64  46 CALM      30.03F
DYERSBURG      MOSUNNY  N/A N/A N/A MISG        N/A
UNION CITY     MOSUNNY   88  64  45 SW6       30.02F
PARIS          MOSUNNY   82  61  47 S6        30.05F
LEXINGTON      MOSUNNY   88  63  42 CALM      30.03F
$$

TNZ008-025-027-028-033-062-065-066-282200-
NORTH MIDDLE TENNESSEE

CITY           SKY/WX    TMP DP  RH WIND       PRES   REMARKS
NASHVILLE      PTSUNNY   89  56  32 S8        30.05F
CLARKSVILLE    SUNNY     86  62  44 S7        30.05F
SMYRNA         MOSUNNY   94  62  34 S3        30.06F HX  94
COOKEVILLE     SUNNY     88  66  48 S5        30.09F HX  90
CROSSVILLE     SUNNY     82  59  45 VRB5      30.15F
$$

TNZ061-075-076-078-094-096-097-282200-
SOUTH MIDDLE TENNESSEE

CITY           SKY/WX    TMP DP  RH WIND       PRES   REMARKS
FAYETTEVILLE     N/A     82  64  54 CALM      30.06F
TULLAHOMA      MOSUNNY   82  63  51 S7        30.09F
WINCHESTER     SUNNY     84  68  58 SE8       30.08F
MCMINNVILLE    MOSUNNY   88  64  45 S5        30.09F
COLUMBIA       PTSUNNY   84  66  54 SE3       30.04F
SHELBYVILLE    PTSUNNY   86  66  51 SE7       30.08S
$$

TNZ017-018-042-046-047-282200-
NORTHEAST TENNESSEE

CITY           SKY/WX    TMP DP  RH WIND       PRES   REMARKS
TRI CITIES     MOSUNNY   85  57  38 CALM      30.15F
ELIZABETHTON   PTCLDY    81  64  57 CALM      30.15S
$$

TNZ012-013-036-069-073-074-282200-
CENTRAL EAST TENNESSEE

CITY           SKY/WX    TMP DP  RH WIND       PRES   REMARKS
KNOXVILLE      MOSUNNY   88  57  34 N6        30.09F
OAK RIDGE      SUNNY     84  61  45 VRB3      30.11F
GATLINBURG     PTCLDY    84  55  37 VRB6      30.09F
MORRISTOWN     CLEAR     82  61  47 VRB3      30.14F
$$

TNZ083-085-099-282200-
SOUTHEAST TENNESSEE

CITY           SKY/WX    TMP DP  RH WIND       PRES   REMARKS
CHATTANOOGA    PTSUNNY   86  65  49 S9        30.07F
$$

SKY/WX REPORTED AS FAIR MEANS FEW OR NO CLOUDS BELOW
12 THOUSAND FEET.




USA.gov is the U.S. government's official web portal to all federal, state and local government web resources and services.